Погода в Чамлыке-Никольском

Россия / Липецкая область     52°02′37″N   40°34′39″E
темп.,
°C
ветер,
м/с
пор.,
м/с
влажн.,
%
обл.,
%
осадки,
мм/ч
давл.,
гПа
погр.,
м
14 апреля, ср
ср1400:00+12юв4105792 0.0 1023210
03:00+10юв486397 0.0 1023145
06:00+9вюв3768100 0.0 1022134
09:00+14вюв5848100 0.0 1021372
12:00+18юв68322 0.0 10191179
15:00+20юв68265 0.0 10182023
18:00+18вюв473898 0.0 1017184
21:00+14вюв41150100 0.0 1018229
15 апреля, чт
чт1500:00+12вюв485697 0.0 1017136
03:00+10вюв356287 0.0 101684
06:00+9в336897 0.0 101550
09:00+14вюв355395 0.0 1015360
12:00+18ююв3441100 0.0 1014954
15:00+19ююв243698 0.0 10142070
18:00+17вюв3550100 0.0 1014122
21:00+14ююв2260100 0.0 101434
16 апреля, пт
пт1600:00+13ююв226584 0.0 101415
03:00+11вюв3371100 0.0 101534
06:00+11ююв2375100 0.1 101656
09:00+14вюв2363100 0.2 1016262
12:00+17ююв234799 0.0 10171208
15:00+19юв464177 0.0 10161949
18:00+15з466685 0.6 1017244
21:00+12сз248655 4.8 101895
17 апреля, сб
сб1700:00+11св338781 0.5 101845
03:00+10всв388562 0.9 1018167
06:00+10всв51286100 0.0 1018379
09:00+13в71172100 0.0 1019678
12:00+17в9125688 0.1 10191417
15:00+13ююв4873100 2.3 1019858
18:00+9ююз2493100 8.1 1021312
21:00+9всв3592100 13.3 1022246
18 апреля, вс
вс1800:00+10юв2494100 0.4 1023242
03:00+9вюв129589 1.2 1023172
06:00+9в5879100 0.7 1024512
09:00+7в5874100 0.7 1025420
12:00+7в61088100 0.6 1026488
15:00+7в5986100 1.6 1026563
18:00+8в5882100 0.0 1026621
21:00+6всв41189100 0.0 1026266